EW5383 Weather Reports


Display with metric or nautical units.
time (UTC)temp
F
wind
direction
speed
MPH
gust
MPH
rain 1hr
in
rain 24hr
in
rain mn
in
humidity
%
barometer
mb
20260507193059 92 44 0.0 1.0 0.00 0.00 0.00 44 1014.8
20260507191559 92 80 0.0 0.0 0.00 0.00 0.00 44 1014.8
20260507190049 93 341 0.0 2.0 0.00 0.00 0.00 46 1015.1
20260507184543 92 206 0.0 0.0 0.00 0.00 0.00 49 1015.4
20260507183050 92 1 0.0 0.0 0.00 0.00 0.00 51 1015.7
20260507181536 92 320 0.0 0.0 0.00 0.00 0.00 50 1015.8
20260507180045 92 197 0.0 2.0 0.00 0.00 0.00 51 1016.1
20260507174526 91 292 0.0 1.0 0.00 0.00 0.00 53 1016.2
20260507173027 91 30 0.0 1.0 0.00 0.00 0.00 54 1016.3
20260507171518 90 269 0.0 1.0 0.00 0.00 0.00 56 1016.3
20260507170030 90 197 0.0 0.0 0.00 0.00 0.00 53 1016.4
20260507164509 90 55 0.0 1.0 0.00 0.00 0.00 56 1016.5
20260507163004 90 277 0.0 1.0 0.00 0.00 0.00 58 1016.6
20260507161606 89 27 0.0 2.0 0.00 0.00 0.00 58 1016.6
20260507160056 89 14 0.0 1.0 0.00 0.00 0.00 58 1016.8
20260507154554 89 259 0.0 1.0 0.00 0.00 0.00 59 1016.7
20260507153100 88 226 0.0 2.0 0.00 0.00 0.00 61 1016.8
20260507151542 87 271 0.0 1.0 0.00 0.00 0.00 61 1016.8
20260507150037 87 252 0.0 1.0 0.00 0.00 0.00 61 1016.8
20260507144534 87 240 0.0 0.0 0.00 0.00 0.00 60 1016.7
20260507143029 86 200 0.0 1.0 0.00 0.00 0.00 60 1016.6
20260507141526 86 114 0.0 1.0 0.00 0.00 0.00 59 1016.6
20260507140020 86 4 0.0 0.0 0.00 0.00 0.00 56 1016.6
20260507134515 85 90 0.0 0.0 0.00 0.00 0.00 44 1016.5
20260507133012 84 213 0.0 0.0 0.00 0.00 0.00 30 1016.4
20260507131508 83 224 0.0 0.0 0.00 0.00 0.00 6 1016.2
20260507130002 83 90 0.0 0.0 0.00 0.00 0.00 1 1016.3
20260507124601 82 87 0.0 0.0 0.00 0.00 0.00 1 1016.1
20260507123056 80 85 0.0 0.0 0.00 0.00 0.00 1 1016.0
20260507121555 77 86 0.0 0.0 0.00 0.00 0.00 1 1016.0
20260507120043 74 85 0.0 0.0 0.00 0.00 0.00 1 1016.0
20260507114539 71 85 0.0 0.0 0.00 0.00 0.00 1 1015.9
20260507113035 69 85 0.0 0.0 0.00 0.00 0.00 1 1015.9
20260507111530 0 0.0 0.0 0.00 0.00 0.00 1015.6
20260507110026 0 0.0 0.0 0.00 0.00 0.00 1015.6
20260507104522 0 0.0 0.0 0.00 0.00 0.00 1015.6
20260507103017 0 0.0 0.0 0.00 0.00 0.00 1015.4
20260507101513 0 0.0 0.0 0.00 0.00 0.00 1015.3
20260507100014 0 0.0 0.0 0.00 0.00 0.00 1015.1
20260507094605 0 0.0 0.0 0.00 0.00 0.00 1015.0
20260507093103 0 0.0 0.0 0.00 0.00 0.00 1015.1
20260507091556 0 0.0 0.0 0.00 0.00 0.00 1015.1
20260507090057 0 0.0 0.0 0.00 0.00 0.00 1014.8
20260507084549 0 0.0 0.0 0.00 0.00 0.00 1014.5
20260507083045 0 0.0 0.0 0.00 0.00 0.00 1014.3
20260507081539 0 0.0 0.0 0.00 0.00 0.00 1014.4
20260507080035 0 0.0 0.0 0.00 0.00 0.00 1014.4
20260507074530 0 0.0 0.0 0.00 0.00 0.00 1014.3
20260507073025 0 0.0 0.0 0.00 0.00 0.00 1014.2
20260507071525 0 0.0 0.0 0.00 0.00 0.00 1014.2
20260507070018 0 0.0 0.0 0.00 0.00 0.00 1014.5
20260507064513 0 0.0 0.0 0.00 0.00 0.00 1014.7
20260507063009 0 0.0 0.0 0.00 0.00 0.00 1015.1
20260507061505 0 0.0 0.0 0.00 0.00 0.00 1015.2
20260507060104 0 0.0 0.0 0.00 0.00 0.00 1015.5
20260507054614 0 0.0 0.0 0.00 0.00 0.00 1015.5
20260507053105 0 0.0 0.0 0.00 0.00 0.00 1015.8
20260507051556 0 0.0 0.0 0.00 0.00 0.00 1016.1
20260507050050 0 0.0 0.0 0.00 0.00 0.00 1016.3
20260507044549 0 0.0 0.0 0.00 0.00 0.00 1016.0
20260507043039 0 0.0 0.0 0.00 0.00 0.00 1016.1
20260507041535 0 0.0 0.0 0.00 0.00 0.00 1016.1
20260507040038 72 9 0.0 0.0 0.00 0.00 0.00 1 1016.0
20260507034527 73 4 0.0 0.0 0.00 0.00 0.00 1 1015.9
20260507033022 73 4 0.0 0.0 0.00 0.00 0.00 1 1015.8
20260507031518 74 4 0.0 0.0 0.00 0.00 0.00 1 1015.7
20260507030016 74 4 0.0 0.0 0.00 0.00 0.00 1 1015.8
20260507024509 74 4 0.0 0.0 0.00 0.00 0.00 1 1015.7
20260507023004 75 4 0.0 0.0 0.00 0.00 0.00 1 1015.7
20260507021641 75 4 0.0 0.0 0.00 0.00 0.00 1 1015.6
20260507020110 75 4 0.0 0.0 0.00 0.00 0.00 1 1015.7
20260507014618 76 4 0.0 0.0 0.00 0.00 0.00 1 1015.6
20260507013049 76 4 0.0 0.0 0.00 0.00 0.00 1 1015.5
20260507011551 76 4 0.0 0.0 0.00 0.00 0.00 1 1015.5
20260507010043 77 4 0.0 0.0 0.00 0.00 0.00 1 1015.6
20260507004532 77 1 0.0 0.0 0.00 0.00 0.00 1 1015.5
20260507003028 78 1 0.0 0.0 0.00 0.00 0.00 1 1015.5
20260507001528 78 21 0.0 0.0 0.00 0.00 0.00 1 1015.6
20260507000025 79 8 0.0 0.0 0.00 0.00 0.00 21 1015.5
20260506234515 80 341 0.0 0.0 0.00 0.00 0.00 47 1015.5
20260506233011 81 350 0.0 0.0 0.00 0.00 0.00 64 1015.4
20260506231507 82 288 0.0 1.0 0.00 0.00 0.00 64 1015.4
20260506230001 83 138 0.0 1.0 0.00 0.00 0.00 63 1015.3
20260506224557 83 69 0.0 0.0 0.00 0.00 0.00 60 1015.4
20260506223053 84 28 0.0 0.0 0.00 0.00 0.00 60 1015.3
20260506221556 86 318 0.0 0.0 0.00 0.00 0.00 61 1015.4
20260506220046 86 62 0.0 0.0 0.00 0.00 0.00 60 1015.3
20260506214538 87 50 0.0 0.0 0.00 0.00 0.00 61 1015.3
20260506213041 88 46 0.0 0.0 0.00 0.00 0.00 62 1015.3
20260506211539 88 32 0.0 0.0 0.00 0.00 0.00 62 1015.3
20260506210033 90 25 0.0 0.0 0.00 0.00 0.00 61 1015.2
20260506204523 90 335 0.0 1.0 0.00 0.00 0.00 59 1015.2
20260506203016 90 160 0.0 0.0 0.00 0.00 0.00 58 1015.3
20260506201511 90 349 0.0 1.0 0.00 0.00 0.00 58 1015.3
20260506200010 91 83 0.0 0.0 0.00 0.00 0.00 59 1015.4
20260506194502 91 259 0.0 0.0 0.00 0.00 0.00 60 1015.4